Location: Hiekkapohja
(62.3333°N, 25.7833°E)
Time: 20:21:24
(UTC+00:00)

Helios 1B rocket - Pass Details

Date: 07 August 2020
Orbit: 575 x 583 km, 98.1° (Epoch: 21 September)

Event Time Altitude Azimuth Distance (km) Brightness Sun altitude
Rises 00:39:11 0° 16° (NNE) 2,809 7.7 -6.9°
Reaches altitude 10° 00:41:31 10° 7° (N) 1,904 6.2 -6.7°
Maximum altitude 00:45:09 31° 305° (NW) 1,023 3.7 -6.5°
Drops below altitude 10° 00:48:47 10° 243° (WSW) 1,892 4.5 -6.3°
Enters shadow 00:49:40 - 238° (WSW) 2,224 4.8 -6.2°
